Location: 22
(39.7117°N, 89.5929°W)
Time: 01:09:14
(UTC-05:00)

A-11 Canister half - Pass Details

Date: 15 June 2023
Orbit: 1524 x 1684 km, 47.3° (Epoch: 29 September)

Event Time Altitude Azimuth Distance (km) Brightness Sun altitude
Rises 00:18:08 0° 297° (WNW) 4,677 12.0 -26.3°
Reaches altitude 10° 00:21:10 10° 298° (WNW) 3,698 11.4 -26.4°
Maximum altitude 00:30:32 85° 28° (NNE) 1,558 8.9 -26.6°
Enters shadow 00:38:03 19° 117° (ESE) 3,130 10.3 -26.8°
